Regional Weather Roundup
Issued by NWS

Home | Current Version | Previous Version | Graphics & Text | Print | Product List | Glossary On
Versions: 1 2 3 4 5 6 7 8 9 10 11 12 13 14 15 16 17 18 19 20 21 22 23 24 25 26 27 28 29 30 31 32 33 34 35 36 37 38 39 40 41 42 43 44 45 46 47 48 49 50
447
ASUS43 KOAX 242110
RWRNE

WEATHER ROUNDUP FOR NEBRASKA
NATIONAL WEATHER SERVICE OMAHA NE
300 PM CST FRI NOV 24 2017

NOTES: SATELLITE DATA IS BEING USED TO AUGMENT CLOUD COVER ABOVE
       12000 FEET.
       "FAIR" INDICATES FEW OR NO CLOUDS BELOW 12,000 FEET WITH NO
       SIGNIFICANT WEATHER AND/OR OBSTRUCTIONS TO VISIBILITY.


NEZ001>004-019>022-054>056-242200-
NEBRASKA PANHANDLE

CITY           SKY/WX    TMP DP  RH WIND       PRES   REMARKS
SCOTTSBLUFF    MOSUNNY   59  26  28 N16       29.88S
ALLIANCE       SUNNY     57  30  35 N18       29.86S
CHADRON        CLOUDY    54  32  43 NW14      29.87R
GORDON         FAIR      52  25  35 N14G24    29.86R
KIMBALL        SUNNY     56  34  44 N14G23    29.91R
SIDNEY         SUNNY     59  34  39 N17G25    29.88S
$$

NEZ057>060-069>072-079>082-242200-
SOUTHWEST NEBRASKA

CITY           SKY/WX    TMP DP  RH WIND       PRES   REMARKS
NORTH PLATTE   SUNNY     66  37  34 N18G30    29.80R
IMPERIAL       SUNNY     67  36  31 N26G33    29.78F
LEXINGTON      SUNNY     68  36  31 N24       29.76R
MCCOOK         MOSUNNY   65  38  36 N15G24    29.76R
OGALLALA       SUNNY     65  36  33 N12       29.83R
$$

NEZ005>010-023>029-035>040-094-242200-
NORTH CENTRAL NEBRASKA

CITY           SKY/WX    TMP DP  RH WIND       PRES   REMARKS
VALENTINE      MOSUNNY   57  27  31 NW24G38   29.81R
AINSWORTH      SUNNY     58  31  35 NW23G29   29.80R
BROKEN BOW     SUNNY     64  37  36 NW24G35   29.77R
O`NEILL        MOSUNNY   60  38  44 NW23G40   29.74R
ORD            SUNNY     64  37  36 NW24G37   29.73R
THEDFORD       SUNNY     60  32  35 N24G32    29.83R
$$

NEZ041-046>049-061>064-073>077-083>087-242200-
SOUTH CENTRAL NEBRASKA

CITY           SKY/WX    TMP DP  RH WIND       PRES   REMARKS
GRAND ISLAND   SUNNY     67  38  34 N22G31    29.70R
AURORA         SUNNY     68  36  30 N22G32    29.69R
HASTINGS       SUNNY     66  37  34 N21G32    29.72R
HEBRON         SUNNY     69  39  32 N20G31    29.69R
HOLDREGE       SUNNY     65  39  37 N22G28    29.74R
KEARNEY        SUNNY     67  37  33 N23G30    29.74R
YORK           SUNNY     68  39  34 N15G23    29.68R
$$

NEZ011>018-030>034-042>045-242200-
NORTHEAST NEBRASKA

CITY           SKY/WX    TMP DP  RH WIND       PRES   REMARKS
NORFOLK        PTSUNNY   66  34  30 NW31G40   29.65R
ALBION         SUNNY     65  37  34 NW25G33   29.70R
BLAIR          SUNNY     67  40  36 N21G32    29.60R
COLUMBUS       SUNNY     68  38  33 NW28G35   29.66R
FREMONT        SUNNY     68  38  33 N17G25    29.63R
TEKAMAH        SUNNY     68  37  32 NW25G33   29.60R
WAYNE          CLOUDY    62  31  31 NW24G36   29.65R
$$

NEZ050>053-065>068-078-088>093-242200-
SOUTHEAST NEBRASKA

CITY           SKY/WX    TMP DP  RH WIND       PRES   REMARKS
LINCOLN        SUNNY     70  40  33 N23G33    29.64R
OMAHA EPPLEY   MOSUNNY   68  38  33 N29G40    29.59R
BEATRICE       CLOUDY    69  41  36 N25G33    29.64R
FALLS CITY     CLOUDY    74  39  28 N21G35    29.56R
NEBRASKA CITY  CLOUDY    68  41  37 N25G39    29.60R
PLATTSMOUTH    CLOUDY    68  40  36 N25G31    29.60R
$$

NEZ044-045-051>053-067-242200-
OMAHA AREA

CITY           SKY/WX    TMP DP  RH WIND       PRES   REMARKS
OMAHA EPPLEY   MOSUNNY   68  38  33 N29G40    29.59R
BLAIR          SUNNY     67  40  36 N21G32    29.60R
FREMONT        SUNNY     68  38  33 N17G25    29.63R
MILLARD        SUNNY     69  41  36 N12G26    29.61R
OFFUTT AFB     SUNNY     68  39  33 N24G36    29.59R
PLATTSMOUTH    CLOUDY    68  40  36 N25G31    29.60R
WAHOO          FAIR      69  38  31 N25G31    29.61R
$$




USA.gov is the U.S. government's official web portal to all federal, state and local government web resources and services.